Find Starlink 11388

NORAD ID: 62092 Int'l Des: 2024-220 Owner: SPXS Country: US Constellation: starlink operational
LEOCIRCULAR

現在のビュー

3D地球を読み込み中...

About Starlink 11388

Starlink 11388 (NORAD 62092) is a starlink constellation satellite (v2 mini d2c) launched Nov 25, 2024 by SPXS of US. It operates in LEO, CIRCULAR orbit with a mass of 960.00 kg.

Starlink 11388について

説明を読み込み中...

次回通過

Passes for default location (London). Set your location on the main map for personalized predictions.

高度履歴

Loading altitude history...

軌道要素

1 62092U 24220E 26171.41668980 -.00013770 00000-0 -10406-3 0 9992
2 62092 43.0006 143.9484 0001611 259.9892 278.8182 15.70823936 6017
Epoch: Jun 20, 2026 • Age: 30 hours

現在のステータス

高度 356.3 km
速度 7.70 km/s
衛星直下点 17.14°N, 7.72°E
打ち上げ日 Nov 25, 2024
運用期間 1.5 years
タイプ internet

技術仕様

分類 Payload
質量 960.00 kg
乾燥質量 910.00 kg
総質量 960.00 kg
長さ 0.30 m
直径 4.10 m
スパン 29.00 m
形状 Box + pan
製造者 SPXS
バスタイプ Starlink V2MD
フェーズステータス In Orbit
所有者/国 SPXS/US

Most Searched